Weather History for Santa Ana, CA

Change the Weather History Date:

Friday, October 4, 2013

  Actual Average Record
Temperature  
Mean Temperature 78 °F 69 °F  
Max Temperature 91 °F 77 °F 91 °F (2013)
Min Temperature 64 °F 61 °F 55 °F (2002)
Degree Days  
Heating Degree Days 0 0  
Month to date heating degree days 0 0  
Since 1 July heating degree days 0 1  
Cooling Degree Days 13 4  
Month to date cooling degree days 28 16  
Year to date cooling degree days 1063 784  
Growing Degree Days 27 (Base 50)    
Moisture  
Dew Point 41 °F    
Average Humidity 42    
Maximum Humidity 78    
Minimum Humidity 5    
Precipitation  
Precipitation 0.00 in 0.01 in 0.06 in (2011)
Month to date precipitation 0.00 0.02  
Year to date precipitation 2.09 9.27  
Since 1 July precipitation 0.12 0.31  
Snow  
Snow 0.00 in - - ()
Month to date snowfall 0.0  
Year to date snowfall 0.0  
Since 1 July snowfall 0.0  
Snow Depth 0.00 in    
Sea Level Pressure  
Sea Level Pressure 29.93 in    
Wind  
Wind Speed 6 mph (SE)    
Max Wind Speed 24 mph    
Max Gust Speed 30 mph    
Visibility 10 miles    
Events      
T = Trace of Precipitation, MM = Missing Value Source: NWS Daily Summary

Daily Weather History Graph

Daily Weather History Graph

Search for Another Location

Airport:

Trip Planner

Search our weather history database for the weather conditions in past years. The results will help you decide how hot, cold, wet, or windy it might be!

Date:

Astronomy

Oct. 04, 2013 Rise Set
Actual Time 6:48 AM PDT 6:31 PM PDT
Civil Twilight 6:23 AM PDT 6:56 PM PDT
Nautical Twilight 5:54 AM PDT 7:25 PM PDT
Astronomical Twilight 5:25 AM PDT 7:53 PM PDT
Moon 6:27 AM PDT (10/4) 6:18 PM PDT (10/4)
Length of Visible Light 12h 32m
Length of Day
11h 43m
Waning Crescent, 0% of the Moon is Illuminated
Oct 4
Waning Crescent
Oct 4
New
Oct 11
First Quarter
Oct 18
Full
Oct 26
Last Quarter

Hourly Weather History & Observations

Time (PDT) Temp. Heat Index Dew Point Humidity Pressure Visibility Wind Dir Wind Speed Gust Speed Precip Events Conditions
12:53 AM 66.9 °F - 57.9 °F 73% 29.88 in 10.0 mi SSW 5.8 mph - N/A   Overcast
1:53 AM 66.9 °F - 57.9 °F 73% 29.89 in 10.0 mi SSW 3.5 mph - N/A   Overcast
2:53 AM 66.9 °F - 57.0 °F 70% 29.89 in 10.0 mi SSW 3.5 mph - N/A   Overcast
3:53 AM 66.0 °F - 55.9 °F 70% 29.88 in 10.0 mi Calm Calm - N/A   Mostly Cloudy
4:53 AM 64.9 °F - 57.9 °F 78% 29.89 in 10.0 mi Calm Calm - N/A   Mostly Cloudy
5:53 AM 64.9 °F - 57.9 °F 78% 29.90 in 10.0 mi Calm Calm - N/A   Mostly Cloudy
6:09 AM 64.4 °F - 57.2 °F 77% 29.91 in 10.0 mi Calm Calm - N/A   Scattered Clouds
6:53 AM 64.0 °F - 57.9 °F 80% 29.92 in 10.0 mi Calm Calm - N/A   Partly Cloudy
7:53 AM 66.0 °F - 57.9 °F 75% 29.94 in 9.0 mi Calm Calm - N/A   Clear
8:53 AM 69.1 °F - 57.0 °F 65% 29.96 in 9.0 mi WNW 3.5 mph - N/A   Clear
9:53 AM 71.1 °F - 57.0 °F 61% 29.96 in 9.0 mi West 3.5 mph - N/A   Clear
10:53 AM 78.1 °F - 50.0 °F 37% 29.96 in 8.0 mi WSW 3.5 mph - N/A   Clear
11:53 AM 78.1 °F - 55.9 °F 46% 29.96 in 9.0 mi Variable 4.6 mph 18.4 mph N/A   Clear
12:53 PM 77.0 °F - 57.0 °F 50% 29.95 in 10.0 mi SW 9.2 mph - N/A   Clear
1:53 PM 80.1 °F 80.2 °F 55.9 °F 43% 29.92 in 10.0 mi WSW 9.2 mph - N/A   Clear
2:53 PM 82.9 °F 82.0 °F 55.0 °F 38% 29.91 in 10.0 mi SSW 9.2 mph - N/A   Clear
3:53 PM 90.0 °F - 10.9 °F 5% 29.91 in 10.0 mi ENE 15.0 mph 21.9 mph N/A   Clear
4:53 PM 88.0 °F - 9.0 °F 5% 29.91 in 10.0 mi ENE 23.0 mph 29.9 mph N/A   Clear
5:53 PM 86.0 °F - 12.0 °F 6% 29.92 in 10.0 mi NE 18.4 mph 27.6 mph N/A   Clear
6:53 PM 82.0 °F - 14.0 °F 8% 29.94 in 10.0 mi NE 15.0 mph 27.6 mph N/A   Clear
7:53 PM 80.1 °F - 15.1 °F 9% 29.96 in 10.0 mi NE 17.3 mph 28.8 mph N/A   Clear
8:53 PM 79.0 °F - 16.0 °F 9% 29.98 in 10.0 mi NE 16.1 mph 24.2 mph N/A   Clear
9:53 PM 79.0 °F - 16.0 °F 9% 30.00 in 10.0 mi ENE 11.5 mph 23.0 mph N/A   Clear
10:53 PM 78.1 °F - 17.1 °F 10% 30.01 in 10.0 mi East 8.1 mph - N/A   Clear
11:53 PM 78.1 °F - 18.0 °F 10% 30.02 in 10.0 mi East 9.2 mph - N/A   Clear